Wind_Speed
11 10 9 9 9 9 10 11 12 13 13 13 12 12 11 11 11 12 13 14 15 16 17 18 18 17 15 14 13 12 12 13 14 15 16 17 18 20 21 22 23 24 25 26
10 9 9 9 9 9 10 11 11 12 11 12 12 11 11 11 11 10 10 10 11 12 12 12 12 12 12 13 12 12 13 14 15 16 17 19 20 21 22 24 24 26 27 27
9 9 10 9 9 9 10 10 11 11 11 11 10 10 10 10 10 9 8 8 8 9 9 9 9 10 10 11 11 12 13 15 16 18 19 21 22 23 24 25 26 26 27 28
9 9 9 9 9 9 10 10 10 11 11 11 11 11 10 10 9 8 7 6 7 7 8 8 8 8 9 10 12 13 15 17 18 20 22 23 24 25 26 26 27 28 28 29
9 9 9 8 8 9 9 9 10 10 9 9 9 9 9 9 9 8 7 6 7 7 7 7 7 8 10 11 13 15 16 18 20 21 23 24 25 26 26 27 28 29 29 30
9 9 9 9 9 9 9 9 9 10 9 8 9 8 9 9 9 8 7 7 6 6 7 7 8 9 11 13 14 16 18 19 21 22 24 25 26 26 27 28 29 30 30 30
9 10 10 9 9 9 9 8 8 9 9 9 9 8 8 9 8 8 7 7 7 7 8 9 10 11 13 14 16 17 19 20 22 23 24 25 26 27 28 28 29 29 30 30
8 9 10 9 9 9 8 8 6 6 7 9 9 9 9 8 8 8 8 8 8 8 9 11 12 13 14 15 17 18 19 21 22 24 24 25 25 26 27 28 28 29 29 30
8 9 10 9 9 8 8 7 8 7 7 7 9 9 9 9 9 8 8 9 9 10 11 12 13 14 15 17 18 19 20 22 23 23 23 24 25 26 27 27 28 28 28 29
9 9 11 10 9 8 8 7 6 4 5 5 8 9 10 9 8 8 8 9 10 11 12 13 14 15 16 17 18 19 20 22 22 22 23 25 25 26 26 27 27 28 29 29
10 9 10 10 9 8 7 7 6 5 5 2 6 8 9 8 8 9 9 10 11 13 14 15 15 16 16 17 18 19 21 21 22 22 23 24 25 26 26 27 28 28 28 28
10 9 9 10 9 8 7 6 5 4 5 4 4 8 9 9 9 10 10 11 12 13 14 15 15 16 16 17 19 20 21 21 22 23 24 25 26 27 28 29 29 29 30 30
10 9 7 9 10 9 8 8 6 6 5 5 4 9 10 10 10 11 11 12 13 13 14 14 15 16 17 18 19 20 21 22 23 24 25 26 27 28 29 30 31 31 31 31
11 10 9 10 11 11 9 9 8 7 6 7 7 9 11 11 11 11 12 12 13 13 14 15 15 16 17 19 20 21 22 23 24 25 26 27 28 29 30 32 32 33 33 33
11 10 10 11 11 10 10 10 10 9 9 9 10 10 11 12 12 12 13 13 14 14 14 15 16 17 18 19 21 22 23 24 25 26 27 28 30 31 32 33 34 34 35 35
12 11 11 11 11 11 11 11 12 11 11 11 11 12 12 12 12 13 13 14 14 15 15 16 17 18 19 21 22 23 24 25 26 27 28 30 31 33 34 35 36 36 37 37
13 12 11 10 11 11 11 12 13 12 12 12 12 13 13 13 14 14 14 15 15 15 16 17 18 19 20 22 23 24 25 26 28 29 30 31 33 34 35 36 37 38 39 39
13 12 11 10 11 11 12 12 11 11 11 12 13 14 15 15 15 15 15 15 16 16 17 18 19 21 22 23 24 25 26 28 29 31 32 33 34 35 36 37 38 39 40 39
14 13 12 12 11 11 12 12 11 10 11 13 13 15 15 15 16 16 16 16 17 17 19 20 21 22 23 24 25 26 28 29 30 32 33 34 36 37 38 39 40 40 40 39
15 14 14 13 12 11 14 13 11 11 12 14 15 16 16 16 17 17 17 17 18 19 20 21 22 23 24 25 26 27 29 30 32 33 34 36 37 39 40 41 41 41 40 39
16 16 16 15 14 14 16 14 14 13 15 16 17 17 17 17 17 18 19 19 19 20 21 23 24 24 25 26 27 28 30 32 33 35 36 37 39 41 42 42 42 41 40 39
18 18 18 17 17 18 18 17 16 17 18 19 19 19 19 19 19 19 20 21 21 22 23 24 25 26 27 28 28 30 32 34 35 36 37 39 41 43 43 44 43 42 40 39
20 20 21 20 20 20 19 19 19 19 19 20 21 21 21 21 21 21 22 23 23 24 25 26 27 28 29 30 31 32 34 35 37 38 39 41 43 44 44 44 43 42 41 39
22 21 21 21 21 21 21 20 21 20 21 21 22 23 23 23 23 24 24 25 25 26 28 28 29 30 31 32 32 34 35 37 38 39 41 43 44 45 45 44 43 42 40 38
23 22 21 22 22 22 22 22 22 22 22 23 24 24 25 25 26 27 27 27 27 28 30 31 31 31 32 33 34 36 37 39 40 41 43 44 45 45 45 44 43 41 39 38
23 23 22 23 23 23 23 23 24 24 24 25 25 26 27 28 28 29 30 30 30 30 32 33 33 34 35 36 37 38 39 40 41 43 44 45 45 46 46 44 42 40 38 37
Wind_Direction
323 324 327 317 317 318 321 322 319 317 317 318 315 309 305 299 293 286 278 270 266 266 270 270 269 275 279 286 290 291 299 298 298 299 301 302 302 302 301 296 292 290 287 286
317 316 313 313 316 319 323 327 326 324 324 324 323 316 310 307 304 295 285 277 270 269 275 278 276 279 284 288 290 297 303 304 303 304 305 305 304 304 302 299 296 293 292 290
307 302 304 307 309 315 321 323 322 324 324 324 328 326 322 321 314 308 293 280 279 275 277 284 284 284 286 293 298 301 304 305 305 306 307 307 307 306 304 302 300 297 295 292
302 301 300 303 306 312 315 318 319 321 325 328 332 330 326 325 324 321 312 302 300 287 287 289 293 291 295 302 304 305 308 309 309 310 310 309 309 307 306 305 303 301 298 295
293 296 299 298 301 306 310 314 320 325 324 325 332 340 337 333 332 331 327 324 321 317 314 310 310 310 311 313 313 311 310 310 310 310 310 309 308 308 307 306 305 303 301 298
284 288 291 291 295 302 308 310 318 328 331 327 329 340 336 332 334 336 338 338 339 338 338 333 329 324 320 316 313 311 310 309 309 310 310 309 308 308 307 306 305 303 301 299
286 287 290 291 294 299 302 310 327 328 325 311 319 329 329 334 341 346 349 350 348 345 342 338 335 327 320 316 313 312 312 312 312 313 312 311 310 309 309 308 307 306 304 302
279 284 290 291 291 294 293 293 293 295 301 307 315 320 327 336 342 348 350 347 346 341 336 332 328 322 317 314 313 313 313 315 315 315 316 315 315 314 313 312 310 308 306 303
269 273 282 286 289 289 288 288 287 296 307 316 311 317 324 327 334 342 345 344 341 336 332 328 323 319 316 315 314 314 315 316 317 318 319 319 318 316 315 314 313 310 307 305
269 273 281 283 287 286 285 289 291 290 290 310 314 317 320 323 327 332 334 334 333 330 326 323 319 317 316 315 314 314 316 317 319 320 321 321 321 320 318 317 316 314 311 308
270 272 282 282 280 283 282 281 280 278 271 271 301 303 309 315 320 323 324 326 326 325 322 320 319 318 317 317 318 318 319 320 321 322 323 324 324 322 321 321 319 317 314 311
268 265 271 278 278 274 270 270 270 272 277 274 288 295 302 308 314 316 318 320 321 321 320 319 320 319 319 320 322 323 324 325 326 326 326 327 326 326 325 323 322 319 317 314
270 265 275 289 289 276 266 264 263 267 270 276 285 290 297 303 308 312 315 317 318 319 319 320 320 320 321 324 326 327 328 330 330 330 329 329 329 328 328 326 325 322 319 316
269 264 249 247 258 267 268 266 263 264 267 273 278 284 295 300 305 309 312 314 315 316 317 319 321 322 324 326 328 329 331 332 332 332 331 330 330 330 329 329 327 324 321 317
266 266 262 258 262 262 261 264 265 263 262 264 274 285 291 298 302 307 310 313 314 315 316 319 321 324 326 328 330 331 332 333 333 333 332 332 332 331 330 329 327 325 322 319
262 262 264 266 266 264 262 261 262 263 265 268 277 287 291 296 300 305 309 311 312 314 316 318 320 323 326 328 331 332 333 333 334 333 333 333 333 332 330 329 328 326 324 321
263 262 262 265 267 269 269 261 260 264 266 269 276 284 291 296 301 305 307 309 311 313 315 317 319 322 324 327 330 332 333 333 333 334 333 333 333 332 331 330 328 327 325 322
260 258 257 259 264 269 261 260 261 264 268 271 278 285 290 295 299 303 306 308 310 312 314 316 318 320 323 326 329 331 331 332 332 333 333 332 332 333 332 331 329 328 326 323
257 256 255 256 263 267 267 263 263 268 272 275 281 287 290 294 297 301 304 306 308 310 311 314 317 319 322 325 328 329 330 331 332 332 332 332 332 332 332 331 330 329 327 325
258 255 254 253 252 253 261 263 264 271 278 279 283 286 290 294 297 300 302 304 306 307 310 314 316 319 321 324 325 327 328 330 331 331 332 332 332 332 331 330 330 329 328 326
258 257 255 253 251 251 258 262 266 270 274 280 284 286 289 292 294 297 300 301 303 306 310 313 315 317 320 322 323 324 326 329 330 330 331 331 332 332 332 331 330 329 328 327
256 257 256 252 250 252 259 263 265 269 275 281 285 287 290 292 293 296 298 299 302 306 309 312 314 316 318 320 321 323 325 327 328 328 329 330 331 332 332 332 331 329 328 327
253 252 252 250 251 255 260 261 265 270 275 280 284 287 290 293 294 296 298 300 303 305 308 311 313 315 316 317 319 322 325 325 326 327 328 329 330 331 330 330 330 329 328 327
256 251 251 252 254 258 261 264 266 270 276 280 283 287 290 293 295 296 298 299 301 304 306 308 311 313 315 314 316 319 322 323 324 325 327 327 328 329 330 329 329 329 328 328
257 258 256 256 257 260 262 266 269 272 277 281 284 286 290 292 294 295 297 298 299 302 305 307 308 310 312 314 315 318 320 321 322 324 325 326 327 328 329 328 328 328 328 328
258 259 259 259 260 263 266 269 272 275 278 281 283 286 289 291 293 295 296 297 298 300 302 304 306 308 310 311 313 316 318 319 321 322 323 324 326 327 327 327 327 327 328 328
Height
5882 5882 5881 5879 5878 5877 5875 5874 5872 5870 5868 5866 5865 5863 5862 5861 5860 5859 5859 5858 5858 5858 5858 5857 5857 5857 5857 5857 5856 5855 5854 5853 5852 5851 5849 5848 5846 5844 5842 5840 5839 5837 5835 5834
5882 5880 5879 5877 5876 5875 5873 5872 5871 5868 5866 5864 5863 5861 5860 5859 5858 5857 5856 5855 5855 5855 5854 5854 5853 5854 5854 5854 5853 5852 5851 5850 5849 5847 5845 5843 5841 5839 5837 5835 5833 5831 5828 5826
5880 5879 5877 5876 5874 5873 5872 5871 5869 5867 5865 5863 5862 5860 5859 5857 5856 5855 5853 5853 5853 5852 5852 5852 5851 5852 5852 5851 5850 5849 5848 5847 5845 5843 5841 5839 5836 5834 5831 5828 5826 5823 5821 5819
5877 5876 5875 5874 5873 5872 5871 5869 5868 5866 5864 5863 5862 5860 5858 5856 5854 5853 5852 5851 5851 5850 5850 5849 5849 5849 5849 5848 5847 5846 5845 5843 5841 5838 5836 5833 5831 5828 5825 5822 5819 5816 5814 5811
5876 5874 5873 5872 5871 5870 5869 5867 5866 5864 5863 5862 5861 5860 5859 5855 5854 5852 5851 5850 5850 5849 5848 5847 5847 5846 5846 5845 5844 5843 5841 5839 5837 5834 5831 5828 5825 5822 5819 5816 5812 5809 5806 5803
5874 5872 5871 5870 5869 5868 5867 5866 5865 5864 5863 5863 5861 5860 5859 5855 5854 5852 5850 5849 5849 5848 5847 5846 5845 5845 5844 5843 5841 5840 5838 5835 5833 5830 5827 5823 5820 5816 5813 5809 5806 5802 5799 5796
5872 5871 5869 5868 5867 5866 5866 5866 5867 5866 5865 5863 5860 5859 5858 5855 5853 5852 5850 5849 5848 5847 5846 5845 5844 5843 5842 5841 5839 5837 5834 5831 5828 5825 5822 5818 5814 5811 5807 5803 5799 5795 5791 5788
5871 5870 5868 5866 5866 5865 5864 5865 5866 5865 5864 5862 5859 5857 5857 5854 5853 5851 5850 5848 5847 5846 5845 5844 5843 5841 5840 5838 5836 5833 5831 5827 5824 5820 5817 5813 5809 5805 5801 5797 5793 5789 5785 5781
5869 5868 5865 5864 5863 5863 5862 5862 5862 5862 5861 5860 5859 5857 5855 5853 5852 5850 5849 5848 5847 5846 5844 5843 5841 5839 5838 5835 5833 5830 5827 5823 5820 5816 5812 5808 5804 5799 5795 5791 5787 5782 5778 5774
5865 5865 5863 5862 5861 5861 5861 5860 5860 5860 5860 5861 5859 5856 5855 5852 5851 5850 5848 5847 5846 5845 5843 5841 5839 5837 5835 5833 5830 5827 5823 5820 5816 5811 5807 5803 5799 5794 5790 5785 5781 5776 5771 5767
5862 5862 5862 5860 5859 5860 5859 5859 5858 5858 5858 5859 5859 5858 5853 5852 5850 5849 5847 5846 5845 5843 5841 5839 5837 5835 5832 5829 5826 5823 5819 5815 5811 5807 5802 5798 5793 5789 5784 5779 5774 5769 5764 5760
5859 5860 5860 5859 5857 5857 5856 5856 5856 5857 5856 5856 5857 5858 5851 5850 5849 5847 5846 5844 5843 5841 5839 5837 5834 5832 5829 5826 5823 5819 5815 5810 5806 5802 5797 5792 5788 5783 5778 5773 5767 5762 5757 5752
5856 5857 5858 5858 5857 5856 5854 5854 5854 5854 5854 5854 5855 5856 5850 5848 5847 5845 5844 5842 5840 5838 5836 5834 5831 5828 5826 5822 5818 5814 5810 5806 5801 5796 5792 5787 5782 5777 5772 5766 5761 5755 5749 5744
5853 5853 5855 5857 5855 5853 5852 5852 5851 5851 5852 5852 5852 5851 5848 5846 5845 5843 5841 5839 5838 5835 5833 5831 5828 5825 5822 5818 5814 5810 5805 5801 5796 5791 5787 5782 5777 5771 5765 5759 5754 5748 5742 5736
5849 5850 5850 5850 5850 5849 5849 5849 5848 5848 5849 5849 5849 5847 5846 5844 5842 5840 5839 5837 5834 5832 5830 5827 5824 5821 5817 5814 5809 5805 5801 5796 5791 5787 5782 5776 5771 5765 5759 5753 5747 5740 5734 5728
5846 5846 5846 5846 5846 5846 5846 5846 5845 5845 5845 5845 5845 5844 5842 5841 5839 5837 5835 5833 5831 5828 5826 5823 5820 5817 5813 5809 5805 5801 5796 5791 5786 5782 5776 5771 5765 5759 5752 5746 5739 5733 5726 5719
5842 5843 5843 5843 5843 5843 5843 5842 5842 5842 5842 5842 5841 5841 5838 5837 5835 5834 5832 5829 5827 5825 5822 5819 5816 5813 5809 5805 5800 5796 5791 5786 5781 5776 5771 5765 5759 5752 5746 5739 5732 5725 5718 5711
5838 5839 5839 5840 5840 5840 5842 5838 5838 5838 5838 5837 5837 5836 5835 5833 5831 5830 5828 5825 5823 5820 5818 5815 5811 5808 5804 5800 5796 5791 5786 5782 5776 5771 5765 5759 5753 5746 5739 5732 5725 5718 5710 5703
5834 5835 5836 5837 5837 5837 5837 5835 5835 5835 5834 5834 5833 5832 5830 5829 5827 5825 5823 5821 5818 5816 5813 5810 5807 5803 5799 5795 5791 5786 5781 5776 5771 5765 5759 5753 5747 5740 5732 5725 5718 5710 5702 5694
5830 5831 5832 5832 5833 5834 5834 5832 5831 5832 5831 5830 5828 5827 5826 5825 5823 5821 5819 5816 5814 5811 5808 5805 5801 5798 5794 5790 5785 5781 5776 5771 5765 5759 5753 5747 5740 5733 5725 5718 5710 5702 5694 5686
5826 5826 5827 5828 5828 5830 5828 5827 5828 5829 5828 5825 5824 5823 5821 5820 5819 5816 5814 5811 5808 5806 5803 5799 5796 5792 5788 5784 5780 5775 5770 5765 5759 5753 5747 5740 5733 5726 5718 5710 5702 5694 5686 5678
5821 5822 5822 5823 5824 5826 5823 5823 5823 5823 5821 5820 5818 5817 5816 5815 5813 5811 5808 5806 5803 5800 5797 5794 5790 5786 5783 5778 5774 5769 5764 5759 5753 5747 5740 5733 5726 5718 5710 5702 5694 5686 5678 5671
5815 5816 5816 5818 5819 5818 5817 5817 5817 5816 5815 5814 5813 5812 5810 5809 5807 5805 5802 5800 5797 5794 5791 5787 5784 5780 5776 5772 5767 5762 5757 5751 5745 5739 5733 5726 5718 5710 5702 5694 5686 5678 5671 5663
5808 5809 5810 5810 5811 5811 5811 5811 5811 5810 5809 5808 5807 5805 5804 5802 5801 5798 5796 5793 5791 5787 5784 5781 5777 5774 5769 5765 5760 5755 5750 5744 5738 5732 5725 5718 5710 5703 5695 5686 5678 5671 5663 5656
5802 5803 5804 5804 5805 5805 5805 5804 5804 5804 5803 5802 5800 5799 5798 5796 5794 5792 5789 5786 5784 5781 5777 5774 5770 5766 5762 5757 5753 5748 5742 5736 5730 5724 5717 5710 5702 5695 5687 5679 5671 5663 5656 5649
5795 5796 5797 5797 5798 5798 5798 5798 5797 5797 5796 5795 5794 5792 5790 5789 5787 5784 5782 5779 5776 5773 5770 5766 5763 5759 5754 5750 5745 5740 5734 5728 5722 5715 5708 5701 5694 5686 5679 5671 5664 5656 5649 5642